Location: Forli
(44.2227°N, 12.0407°E)
Time: 03:55:40
(UTC+01:00)

ARIANE 6 FM1 Upper Stage - Pass Details

Date: 23 February 2026
Orbit: 523 x 607 km, 62.0° (Epoch: 6 March)

Event Time Altitude Azimuth Distance (km) Brightness Sun altitude
Rises 18:38:32 0° 307° (NW) 2,657 6.9 -9.1°
Reaches altitude 10° 18:41:09 10° 290° (WNW) 1,766 6.4 -9.6°
Maximum altitude 18:44:02 20° 243° (WSW) 1,270 5.5 -10.1°
Drops below altitude 10° 18:46:56 10° 196° (SSW) 1,773 5.5 -10.6°
Sets 18:49:35 0° 179° (S) 2,670 6.1 -11.1°
